IZ1TNJ Torino IT current weather conditions

sailwx.info

Wind from 293 at 0 knots gusting 2

Air temperature 3.3° C
Dewpoint -1.8° C

Last reported at 2019-Dec-07 09:00 UTC.
Time now 2019-Dec-07 09:44 UTC

Location: N 45°03' E 007°20'.
View on Google Maps.

See reports from other nearby stations

  
Tides and Currents Weather Stations Pressure Air Temp Water Temp Dewpoint Dewpoint Depression Visibility Wind Speed Wind Dir Waves Ship Positions
date/time (UTC)wind fromknots sea level pressurealtimeterstation pressurevisibilityair tempwater tempwave heightnotes
2019-Dec-07 09:00 293 0 gusting 2 3.3
2019-Dec-07 08:50 293 0 gusting 1 2.8
2019-Dec-07 08:40 2.2
2019-Dec-07 08:30 293 0 gusting 1 2.2
2019-Dec-07 08:20 293 1 gusting 2 2.2
2019-Dec-07 08:10 293 1 gusting 2 2.2
2019-Dec-07 08:00 293 0 gusting 1 1.7
2019-Dec-07 07:50 293 1 gusting 3 2.2
2019-Dec-07 07:40 248 1 gusting 3 2.2
2019-Dec-07 07:30 315 1 gusting 3 1.7
2019-Dec-07 07:20 293 0 gusting 1 1.7
2019-Dec-07 07:10 1.1
2019-Dec-07 07:00 270 2 gusting 6 1.1
2019-Dec-07 06:50 293 1 gusting 2 1.1
2019-Dec-07 06:40 270 2 gusting 3 1.1
2019-Dec-07 06:30 270 1 gusting 3 1.1
2019-Dec-07 06:20 315 1 gusting 3 1.1
2019-Dec-07 06:10 315 1 gusting 2 1.1
2019-Dec-07 06:00 315 0 gusting 2 1.1
2019-Dec-07 05:50 315 0 gusting 2 1.1
2019-Dec-07 05:40 315 1 gusting 2 1.7
2019-Dec-07 05:30 315 1 gusting 2 1.1
2019-Dec-07 05:20 315 0 gusting 2 1.1
2019-Dec-07 05:10 315 0 gusting 2 1.1
2019-Dec-07 05:00 315 0 gusting 1 1.1
2019-Dec-07 04:50 315 1 gusting 2 1.1
2019-Dec-07 04:40 270 1 gusting 3 1.1
2019-Dec-07 04:30 338 1 gusting 2 1.1
2019-Dec-07 04:20 338 1 gusting 2 1.1
2019-Dec-07 04:10 270 1 gusting 3 1.1
2019-Dec-07 04:00 270 1 gusting 5 1.1
2019-Dec-07 03:50 315 1 gusting 2 1.1
2019-Dec-07 03:40 315 1 gusting 3 1.1
2019-Dec-07 03:30 270 1 gusting 2 1.1
2019-Dec-07 03:20 270 0 gusting 2 1.1
2019-Dec-07 03:10 270 1 gusting 3 1.7
2019-Dec-07 03:00 270 0 gusting 1 1.7
2019-Dec-07 02:50 1.7
2019-Dec-07 02:40 270 0 gusting 1 1.7
2019-Dec-07 02:30 270 1 gusting 2 2.2
2019-Dec-07 02:20 270 1 gusting 3 2.2
2019-Dec-07 02:10 270 0 gusting 2 2.2
2019-Dec-07 02:00 270 1 gusting 3 2.2
2019-Dec-07 01:50 315 0 gusting 1 2.2
2019-Dec-07 01:40 315 0 gusting 2 2.2
2019-Dec-07 01:30 315 0 gusting 1 2.2
2019-Dec-07 01:20 315 0 gusting 1 2.2
2019-Dec-07 01:10 315 0 gusting 2 2.2
2019-Dec-07 01:00 2.2
2019-Dec-07 00:50 315 1 gusting 2 2.2
2019-Dec-07 00:40 270 0 gusting 1 2.2
2019-Dec-07 00:30 270 0 gusting 2 2.2
2019-Dec-07 00:20 270 1 gusting 2 2.2
2019-Dec-07 00:10 023 0 gusting 2 2.2
2019-Dec-07 00:00 2.2
2019-Dec-06 23:50 2.2
2019-Dec-06 23:40 2.2
2019-Dec-06 23:30 2.2
2019-Dec-06 23:20 023 0 gusting 1 2.2
2019-Dec-06 23:10 023 0 gusting 1 2.2
2019-Dec-06 23:00 023 0 gusting 1 1.7
2019-Dec-06 22:50 023 0 gusting 1 1.7
2019-Dec-06 22:40 023 1 gusting 2 1.7
2019-Dec-06 22:30 023 0 gusting 2 1.7
2019-Dec-06 22:20 023 0 gusting 1 1.7
2019-Dec-06 22:10 023 0 gusting 1 1.7
2019-Dec-06 22:00 023 0 gusting 1 1.1
2019-Dec-06 21:50 023 1 gusting 2 1.1
2019-Dec-06 21:40 023 0 gusting 1 1.1
2019-Dec-06 21:30 023 0 gusting 1 1.1
2019-Dec-06 21:20 023 1 gusting 1 1.1
2019-Dec-06 21:10 023 0 gusting 1 1.1
2019-Dec-06 21:00 023 0 gusting 1 1.1
2019-Dec-06 20:50 023 0 gusting 1 0.6
2019-Dec-06 20:40 023 0 gusting 1 0.6
2019-Dec-06 20:30 023 0 gusting 1 0.6
2019-Dec-06 20:20 023 0 gusting 2 0.6
2019-Dec-06 20:10 023 0 gusting 1 0.6
2019-Dec-06 20:00 023 1 gusting 2 0.6
2019-Dec-06 19:50 023 0 gusting 0 0.6
2019-Dec-06 19:40 023 1 gusting 1 0.6
2019-Dec-06 19:30 023 1 gusting 1 0.6
2019-Dec-06 19:20 023 0 gusting 1 0.6
2019-Dec-06 19:10 023 1 gusting 2 0.6
2019-Dec-06 19:00 023 1 gusting 2 0.6
2019-Dec-06 18:50 023 1 gusting 2 0.6
2019-Dec-06 18:40 023 1 gusting 2 0.6
2019-Dec-06 18:30 023 1 gusting 2 0.6
2019-Dec-06 18:20 023 1 gusting 2 1.1
2019-Dec-06 18:10 023 1 gusting 2 0.6
2019-Dec-06 18:00 023 1 gusting 1 1.1
2019-Dec-06 17:50 023 1 gusting 2 1.1
2019-Dec-06 17:40 023 1 gusting 2 1.1
2019-Dec-06 17:30 023 1 gusting 2 1.1
2019-Dec-06 17:20 045 1 gusting 2 1.1
2019-Dec-06 17:10 045 1 gusting 2 1.1
2019-Dec-06 17:00 045 1 gusting 1 1.1
2019-Dec-06 16:50 045 0 gusting 1 1.1
2019-Dec-06 16:40 068 1 gusting 2 1.1
2019-Dec-06 16:30 068 0 gusting 1 1.7
2019-Dec-06 16:20 068 0 gusting 1 1.7
2019-Dec-06 16:10 068 0 gusting 2 1.7
2019-Dec-06 16:00 2.2
2019-Dec-06 15:50 2.2
2019-Dec-06 15:40 113 0 gusting 1 2.8
2019-Dec-06 15:30 113 0 gusting 0 3.3
2019-Dec-06 15:20 3.9
2019-Dec-06 15:10 4.4
2019-Dec-06 15:00 113 0 gusting 1 5.0
2019-Dec-06 14:50 113 0 gusting 2 5.6
2019-Dec-06 14:40 158 0 gusting 2 6.1
2019-Dec-06 14:30 113 1 gusting 3 6.1
2019-Dec-06 14:20 113 1 gusting 3 6.7
2019-Dec-06 14:10 090 1 gusting 5 6.7
2019-Dec-06 14:00 090 2 gusting 3 6.7
2019-Dec-06 13:50 158 1 gusting 5 6.7
2019-Dec-06 13:40 090 2 gusting 5 6.7
2019-Dec-06 13:30 090 1 gusting 5 6.7
2019-Dec-06 13:20 090 2 gusting 5 6.7
2019-Dec-06 13:10 090 2 gusting 5 6.7
2019-Dec-06 13:00 090 1 gusting 5 6.7
2019-Dec-06 12:50 090 1 gusting 3 6.1
2019-Dec-06 12:40 090 1 gusting 3 6.1
2019-Dec-06 12:30 135 1 gusting 4 6.1
2019-Dec-06 12:20 135 1 gusting 3 6.1
2019-Dec-06 12:10 158 1 gusting 4 6.1
2019-Dec-06 12:00 135 1 gusting 5 6.1
2019-Dec-06 11:50 135 0 gusting 4 5.6
2019-Dec-06 11:40 090 1 gusting 3 5.6
2019-Dec-06 11:30 090 0 gusting 3 5.6
2019-Dec-06 11:20 135 1 gusting 3 5.6
2019-Dec-06 11:10 113 1 gusting 6 5.6
2019-Dec-06 11:00 090 2 gusting 6 5.6
2019-Dec-06 10:50 158 2 gusting 5 5.0
2019-Dec-06 10:40 113 1 gusting 3 5.0
2019-Dec-06 10:30 113 1 gusting 6 5.0
2019-Dec-06 10:20 113 1 gusting 3 5.0
2019-Dec-06 10:10 113 1 gusting 3 4.4
2019-Dec-06 10:00 135 1 gusting 3 4.4
2019-Dec-06 09:50 135 0 gusting 2 4.4
2019-Dec-06 09:40 113 0 gusting 2 4.4
2019-Dec-06 09:30 090 0 gusting 2 3.9
2019-Dec-06 09:20 090 1 gusting 3 3.9
2019-Dec-06 09:10 135 1 gusting 2 3.3
2019-Dec-06 09:00 158 1 gusting 3 3.3
2019-Dec-06 08:50 248 1 gusting 2 2.8
2019-Dec-06 08:40 248 0 gusting 2 2.8
2019-Dec-06 08:30 293 0 gusting 1 2.2
2019-Dec-06 08:20 1.7
2019-Dec-06 08:10 1.7
2019-Dec-06 08:00 1.1
2019-Dec-06 07:50 1.1
2019-Dec-06 07:40 0.6
2019-Dec-06 07:30 293 0 gusting 1 -0.0
2019-Dec-06 07:20 293 0 gusting 1 -0.6
2019-Dec-06 07:10 293 0 gusting 1 -0.6
2019-Dec-06 07:00 293 1 gusting 2 -0.6
2019-Dec-06 06:50 293 1 gusting 2 -0.6
2019-Dec-06 06:40 293 1 gusting 2 -0.6
2019-Dec-06 06:30 293 1 gusting 2 -1.1
2019-Dec-06 06:20 293 1 gusting 2 -0.6
2019-Dec-06 06:10 293 1 gusting 2 -0.6
2019-Dec-06 06:00 293 1 gusting 2 -0.6
2019-Dec-06 05:50 293 1 gusting 2 -0.6
2019-Dec-06 05:40 293 2 gusting 2 -0.6
2019-Dec-06 05:30 293 1 gusting 2 -0.6
2019-Dec-06 05:20 293 1 gusting 2 -0.6
2019-Dec-06 05:10 293 2 gusting 2 -0.6
2019-Dec-06 05:00 293 1 gusting 1 -0.6
2019-Dec-06 04:50 293 1 gusting 2 -0.6
2019-Dec-06 04:40 293 1 gusting 1 -0.6
2019-Dec-06 04:30 293 1 gusting 2 -0.6
2019-Dec-06 04:20 293 1 gusting 2 -0.6
2019-Dec-06 04:10 293 1 gusting 2 -0.6
2019-Dec-06 04:00 293 1 gusting 2 -0.6
2019-Dec-06 03:50 293 1 gusting 2 -0.6
2019-Dec-06 03:40 293 1 gusting 2 -0.6
2019-Dec-06 03:30 293 1 gusting 2 -0.6
2019-Dec-06 03:20 293 1 gusting 2 -0.6
2019-Dec-06 03:10 293 1 gusting 2 -0.6
2019-Dec-06 03:00 293 0 gusting 1 -0.6
2019-Dec-06 02:50 293 1 gusting 2 -0.6
2019-Dec-06 02:40 293 1 gusting 2 -0.6
2019-Dec-06 02:30 293 1 gusting 2 -0.6
2019-Dec-06 02:20 293 1 gusting 2 -0.6
2019-Dec-06 02:10 293 1 gusting 2 -0.0
2019-Dec-06 02:00 293 1 gusting 2 -0.0
2019-Dec-06 01:50 293 2 gusting 2 -0.6
2019-Dec-06 01:40 293 0 gusting 1 -0.6
2019-Dec-06 01:30 293 1 gusting 2 -0.0
2019-Dec-06 01:20 293 1 gusting 2 -0.0
2019-Dec-06 01:10 293 0 gusting 1 -0.0
2019-Dec-06 01:00 293 1 gusting 2 -0.0
2019-Dec-06 00:50 293 1 gusting 2 -0.0
2019-Dec-06 00:40 293 1 gusting 2 -0.0
2019-Dec-06 00:30 293 1 gusting 1 -0.0
2019-Dec-06 00:20 293 1 gusting 2 -0.0
2019-Dec-06 00:10 293 1 gusting 2 -0.0
2019-Dec-06 00:00 293 1 gusting 2 -0.0
2019-Dec-05 23:50 293 1 gusting 1 -0.0
2019-Dec-05 23:40 293 1 gusting 2 -0.0
2019-Dec-05 23:30 293 1 gusting 2 -0.0
2019-Dec-05 23:20 293 1 gusting 2 -0.0
2019-Dec-05 23:10 293 1 gusting 2 -0.0
2019-Dec-05 23:00 293 1 gusting 2 -0.0
2019-Dec-05 22:50 293 1 gusting 2 -0.0
2019-Dec-05 22:40 293 1 gusting 1 0.6
2019-Dec-05 22:30 293 0 gusting 1 -0.0
2019-Dec-05 22:20 293 0 gusting 1 -0.0
2019-Dec-05 22:10 293 0 gusting 1 -0.0
2019-Dec-05 22:00 293 1 gusting 1 -0.0
2019-Dec-05 21:50 293 1 gusting 2 0.6
2019-Dec-05 21:40 293 1 gusting 2 -0.0
2019-Dec-05 21:30 293 1 gusting 2 0.6
2019-Dec-05 21:20 293 1 gusting 2 0.6
2019-Dec-05 21:10 293 1 gusting 2 0.6
2019-Dec-05 21:00 293 2 gusting 2 0.6
2019-Dec-05 20:50 293 1 gusting 2 -0.0
2019-Dec-05 20:40 293 1 gusting 2 -0.0
2019-Dec-05 20:30 293 1 gusting 2 0.6
2019-Dec-05 20:20 293 1 gusting 2 0.6
2019-Dec-05 20:10 293 1 gusting 2 0.6
2019-Dec-05 20:00 293 1 gusting 2 0.6
2019-Dec-05 19:50 293 0 gusting 1 0.6
2019-Dec-05 19:40 293 1 gusting 2 1.1
2019-Dec-05 19:30 293 1 gusting 2 0.6
2019-Dec-05 19:20 293 0 gusting 1 0.6
2019-Dec-05 19:10 270 1 gusting 2 0.6
2019-Dec-05 19:00 270 2 gusting 3 0.6
2019-Dec-05 18:50 0.6
2019-Dec-05 18:40 0.6
2019-Dec-05 18:30 1.1
2019-Dec-05 18:20 1.1
2019-Dec-05 18:10 1.1
2019-Dec-05 18:00 1.1
2019-Dec-05 17:50 1.1
2019-Dec-05 17:40 1.1
2019-Dec-05 17:30 1.1
2019-Dec-05 17:20 0.6
2019-Dec-05 17:10 1.1
2019-Dec-05 17:00 1.1
2019-Dec-05 16:50 1.1
2019-Dec-05 16:40 1.7
2019-Dec-05 16:30 2.2
2019-Dec-05 16:20 023 1 gusting 2 2.2
2019-Dec-05 16:10 045 1 gusting 2 2.2
2019-Dec-05 16:00 090 0 gusting 1 2.8
2019-Dec-05 15:50 090 0 gusting 1 2.8
2019-Dec-05 15:40 090 0 gusting 1 3.3
2019-Dec-05 15:30 090 0 gusting 1 3.3
2019-Dec-05 15:20 3.9
2019-Dec-05 15:10 3.9
2019-Dec-05 15:00 090 0 gusting 1 4.4
2019-Dec-05 14:50 090 0 gusting 1 5.0
2019-Dec-05 14:40 090 0 gusting 1 5.0
2019-Dec-05 14:30 090 0 gusting 2 5.6
2019-Dec-05 14:20 090 2 gusting 4 5.6
2019-Dec-05 14:10 113 2 gusting 6 6.1
2019-Dec-05 14:00 113 2 gusting 6 6.7
2019-Dec-05 13:50 090 1 gusting 5 6.7
2019-Dec-05 13:40 090 3 gusting 6 6.7
2019-Dec-05 13:30 113 3 gusting 6 6.7
2019-Dec-05 13:20 090 3 gusting 6 7.2
2019-Dec-05 13:10 090 2 gusting 5 7.2
2019-Dec-05 13:00 090 2 gusting 6 7.2
2019-Dec-05 12:50 090 2 gusting 6 7.2
2019-Dec-05 12:40 090 3 gusting 6 7.2
2019-Dec-05 12:30 113 1 gusting 5 7.2
2019-Dec-05 12:20 113 3 gusting 6 7.2
2019-Dec-05 12:10 090 3 gusting 6 7.2
2019-Dec-05 12:00 090 1 gusting 5 7.2
2019-Dec-05 11:50 113 2 gusting 6 7.2
2019-Dec-05 11:40 090 2 gusting 5 6.7
2019-Dec-05 11:30 090 2 gusting 6 6.7
2019-Dec-05 11:20 090 2 gusting 5 7.2
2019-Dec-05 11:10 090 1 gusting 5 6.7
2019-Dec-05 11:00 113 1 gusting 5 6.7
2019-Dec-05 10:50 113 1 gusting 3 6.7
2019-Dec-05 10:40 113 1 gusting 2 6.7
2019-Dec-05 10:30 113 0 gusting 1 6.1
2019-Dec-05 10:20 113 1 gusting 2 6.1
2019-Dec-05 10:10 113 0 gusting 1 5.6
2019-Dec-05 10:00 113 0 gusting 1 5.6
2019-Dec-05 09:50 113 2 gusting 3 5.6
2019-Dec-05 09:40 113 1 gusting 5 5.6
2019-Dec-05 09:30 5.6
2019-Dec-05 09:20 5.0
2019-Dec-05 09:10 5.0
2019-Dec-05 09:00 315 0 gusting 2 5.0